This demonstration page uses our WeatherBlox Daily Observations layout. Learn more.

Left ArrowRight Arrow

39.01783, -85.05884

Hourly Observations for May 8, 2022

Temp ( °F °C ) Dew Point ( °F °C ) Humidity (%) Winds ( mph kmh ) Pressure ( in mb ) Visibility ( mi km ) Precip ( " mm )
12:52 am 00:52 Partly Cloudy 54 12.2 45 7.2 72 72 NE 10 17 29.93 1014 10 16 0.00 0.00
1:52 am 01:52 Clear 53 11.7 45 7.2 74 74 NE 13 20 29.92 1013 10 16 0.00 0.00
2:52 am 02:52 Clear 51 10.6 45 7.2 80 80 ENE 10 17 29.93 1014 10 16 0.00 0.00
3:52 am 03:52 Clear 51 10.6 45 7.2 80 80 NE 9 15 29.95 1014 10 16 0.00 0.00
4:52 am 04:52 Clear 50 10 45 7.2 83 83 ENE 9 15 29.96 1015 10 16 0.00 0.00
5:52 am 05:52 Clear 49 9.4 44 6.7 83 83 E 10 17 29.96 1015 10 16 0.00 0.00
6:52 am 06:52 Partly Cloudy 48 8.9 44 6.7 86 86 ENE 10 17 29.98 1015 10 16 0.00 0.00
7:52 am 07:52 Partly Cloudy 50 10 45 7.2 83 83 E 10 17 30.00 1016 10 16 0.00 0.00
8:52 am 08:52 Mostly Sunny 53 11.7 45 7.2 74 74 E 9 15 30.02 1017 10 16 0.00 0.00
9:52 am 09:52 Mostly Sunny 55 12.8 45 7.2 69 69 NE 9 15 30.03 1017 10 16 0.00 0.00
10:52 am 10:52 Mostly Sunny 58 14.4 44 6.7 60 60 E 14 22 30.02 1017 10 16 0.00 0.00
11:52 am 11:52 Mostly Sunny 62 16.7 43 6.1 50 50 ENE 16 26 30.01 1016 10 16 0.00 0.00
12:52 pm 12:52 Mostly Sunny 64 17.8 45 7.2 50 50 ESE 12 19 29.99 1016 10 16 0.00 0.00
1:52 pm 13:52 Partly Cloudy 66 18.9 47 8.3 50 50 ENE 10 17 29.98 1015 10 16 0.00 0.00
2:52 pm 14:52 Partly Cloudy 67 19.4 48 8.9 51 51 VRB 3 6 29.98 1015 10 16 0.00 0.00
3:52 pm 15:52 Mostly Cloudy 69 20.6 48 8.9 47 47 ENE 9 15 29.96 1015 10 16 0.00 0.00
4:52 pm 16:52 Mostly Cloudy 69 20.6 47 8.3 45 45 E 7 11 29.96 1015 10 16 0.00 0.00
5:52 pm 17:52 Mostly Cloudy 68 20 47 8.3 47 47 NE 10 17 29.96 1015 10 16 0.00 0.00
6:52 pm 18:52 Cloudy 68 20 46 7.8 45 45 ENE 13 20 29.94 1014 10 16 0.00 0.00
7:52 pm 19:52 Mostly Cloudy 66 18.9 46 7.8 49 49 ESE 8 13 29.94 1014 10 16 0.00 0.00
8:52 pm 20:52 Mostly Cloudy 63 17.2 46 7.8 54 54 ESE 8 13 29.96 1014 10 16 0.00 0.00
9:52 pm 21:52 Mostly Cloudy 60 15.6 47 8.3 62 62 E 7 11 29.96 1014 10 16 0.00 0.00
10:52 pm 22:52 Clear 59 15 46 7.8 62 62 E 7 11 29.98 1015 10 16 0.00 0.00
11:52 pm 23:52 Mostly Clear 59 15 47 8.3 64 64 ESE 8 13 29.99 1016 10 16 0.00 0.00

Powered by AerisWeather